Back to catalog

STARLINK-1506

AliveCommunicationsVLEO
NORAD 45747·PAYLOAD·🇺🇸 United States

Launched Jun 13, 2020 from Cape Canaveral Space Force Station

Loading…

Next Passes (next 24 hours)

TLE

FreshSource: CelesTrak SupGP

Epoch: Sep 14, 2026, 20:35 UTC

1 45747C 20038T   26257.85812500  .00047607  00000+0  15326-2 0  2570
2 45747  53.0749  43.8869 0003967 129.4444 237.9114 15.31632851    11

Track STARLINK-1506 in real time with AllMySat

Download on the App Store